Snowfall_Accumulation
0.2 0.2 0.2 0.2 0.1 0.3 0.4 0.5 1.1 1.1 0.2 0.1 0.1 0.1 0.1 0.1 0.1 0.2 0.2 0.1 0.0 0.0 0.1 0.1 0.1 0.1 0.1 0.1 0.1 0.2 0.1 0.1 0.1 0.1 0.1 0.0 0.0 0.0
0.3 0.4 0.2 0.2 0.1 0.3 0.3 0.3 0.7 1.3 1.1 0.1 0.1 0.1 0.0 0.1 0.1 0.1 0.1 0.2 0.2 0.2 0.0 0.1 0.1 0.1 0.2 0.2 0.2 0.2 0.2 0.2 0.1 0.1 0.2 0.1 0.1 0.0
0.4 0.4 0.4 0.3 0.3 0.3 0.3 0.4 0.6 1.0 1.4 0.5 0.2 0.1 0.1 0.3 0.2 0.0 0.0 0.1 0.2 0.1 0.1 0.1 0.2 0.2 0.3 0.3 0.3 0.3 0.3 0.2 0.2 0.2 0.2 0.2 0.2 0.1
0.4 0.4 0.4 0.4 0.6 0.5 0.4 0.4 0.5 0.7 1.2 1.3 0.6 0.7 0.6 0.4 0.3 0.2 0.1 0.1 0.1 0.1 0.1 0.1 0.3 0.4 0.5 0.5 0.5 0.5 0.4 0.4 0.4 0.3 0.2 0.3 0.2 0.2
0.5 0.6 0.6 0.6 0.8 0.9 0.6 0.6 0.7 0.7 1.0 1.6 1.2 1.0 0.9 0.7 0.6 0.6 0.4 0.2 0.0 0.1 0.1 0.1 0.2 0.4 0.8 0.7 0.6 0.6 0.6 0.5 0.4 0.4 0.4 0.4 0.3 0.3
0.5 0.6 0.7 1.0 1.1 1.1 1.2 1.2 1.1 1.5 1.7 1.9 1.9 1.9 1.7 1.1 1.0 1.1 1.0 0.8 0.5 0.2 0.2 0.2 0.4 0.4 0.4 0.3 0.3 0.4 0.4 0.6 0.7 0.6 0.7 0.6 0.6 0.5
0.7 0.8 1.0 1.2 1.2 1.4 1.7 2.3 2.3 2.8 3.1 3.9 3.7 2.8 1.7 1.4 1.2 1.0 1.7 1.5 1.2 0.5 0.7 0.5 0.5 0.4 0.5 0.2 0.2 0.2 0.5 0.8 0.8 0.8 1.1 1.0 0.9 0.7
1.5 1.4 1.4 1.4 1.3 1.4 1.3 1.7 2.8 4.4 5.6 5.8 4.4 2.9 1.6 1.1 1.2 1.5 2.3 2.9 2.4 0.8 1.2 0.7 0.5 0.7 0.7 0.4 0.4 0.5 0.7 0.9 1.0 1.1 1.2 1.2 1.2 1.0
2.1 2.3 2.2 1.8 1.6 1.4 1.4 1.6 1.9 2.5 3.4 3.9 3.9 2.3 1.5 1.5 2.4 3.4 3.5 3.7 3.1 1.6 1.7 1.7 1.0 1.0 0.9 0.9 0.6 0.6 0.4 0.7 0.9 1.3 1.3 1.4 1.3 1.2
2.3 2.0 1.8 1.6 1.5 1.9 2.2 2.9 2.2 1.6 1.1 1.3 1.7 1.6 1.7 1.6 2.6 4.2 4.1 3.6 2.1 1.1 1.4 2.8 1.7 1.4 1.5 1.1 0.9 0.7 0.9 0.9 1.4 1.8 1.8 1.7 1.5 1.6
1.6 1.3 1.2 1.3 1.3 2.6 3.9 4.4 2.3 1.1 0.8 1.1 1.5 1.8 1.7 2.0 2.2 4.4 5.6 5.9 5.4 2.3 1.4 2.7 2.2 2.2 1.7 1.8 1.1 1.1 1.0 1.4 1.2 1.2 1.4 1.4 1.4 1.5
1.2 0.7 0.7 1.2 2.0 3.3 4.2 4.5 3.9 2.0 1.9 1.3 1.0 0.9 1.2 1.1 1.1 2.7 5.2 8.8 8.2 5.6 1.8 2.9 3.4 4.2 5.6 2.5 1.5 1.3 1.4 1.1 1.5 1.4 1.0 1.2 1.5 1.8
2.0 1.3 0.7 1.4 2.7 3.4 3.6 3.6 3.8 3.7 3.3 2.9 2.1 1.9 1.9 1.8 1.3 1.4 3.0 7.1 10.6 8.0 3.0 6.2 8.0 6.4 9.0 5.7 2.7 2.0 1.9 1.9 1.5 1.6 1.7 1.8 2.1 3.4
3.2 2.1 1.9 2.6 2.9 2.6 2.5 2.4 3.2 3.6 3.7 3.7 3.3 3.0 2.6 2.7 2.5 2.3 2.6 3.2 4.8 5.9 3.9 7.2 13.1 10.0 12.1 10.1 5.7 4.1 3.6 2.9 3.0 3.5 3.3 3.2 3.7 3.6
3.1 2.8 3.1 3.2 2.9 2.5 2.2 2.3 2.5 3.3 4.0 4.5 4.3 3.4 3.1 3.2 3.0 3.0 2.8 2.7 3.2 3.2 3.2 4.2 8.7 9.9 12.5 13.1 8.6 5.1 5.0 4.7 4.1 5.1 4.8 4.8 4.8 4.7
3.1 2.7 2.5 2.3 2.4 2.4 2.3 2.8 2.8 3.5 4.4 5.0 5.0 4.3 3.8 4.1 4.3 4.2 4.7 4.6 5.5 4.6 3.5 3.5 5.0 9.0 11.6 9.0 9.1 8.7 6.1 7.2 6.5 6.9 7.1 6.5 5.5 5.0
4.9 4.0 3.1 2.7 2.7 3.0 3.1 3.1 3.4 3.6 5.1 4.8 5.6 5.9 5.3 5.1 5.0 5.1 6.6 7.2 7.8 5.9 5.1 4.3 4.3 5.5 7.2 8.8 10.1 8.0 6.8 7.2 8.1 9.4 10.6 10.2 6.4 4.6
5.2 5.3 4.1 3.5 3.9 4.0 4.4 4.8 4.8 5.3 5.7 6.2 6.8 7.1 7.6 7.3 7.1 6.4 7.2 8.5 8.6 6.7 6.6 6.0 7.0 8.4 8.4 7.1 6.8 8.5 8.7 9.0 9.6 10.3 12.0 14.1 11.1 5.7
5.3 5.1 4.4 4.4 4.7 4.8 5.0 5.6 6.1 5.8 6.3 7.6 8.3 9.0 9.7 9.2 8.5 8.2 8.4 8.5 8.1 7.5 6.9 7.2 9.7 14.4 15.0 10.2 6.7 7.3 11.2 12.0 11.0 11.1 12.1 14.6 16.4 10.1
4.4 4.9 5.3 5.1 5.3 5.5 5.8 6.2 6.3 6.4 7.3 7.7 8.5 9.9 10.9 11.6 10.9 9.8 8.9 9.3 9.7 8.7 7.7 6.9 8.6 13.3 18.6 15.8 12.0 8.9 8.2 13.4 15.5 15.9 13.6 11.3 9.1 5.9
5.0 5.3 5.8 6.1 6.4 6.5 6.6 6.9 7.5 7.8 7.9 9.2 9.6 10.3 11.7 13.3 12.4 10.8 10.5 10.0 10.9 11.1 10.2 7.8 7.1 8.6 13.4 16.3 14.4 10.1 9.7 8.6 11.5 18.1 18.1 16.8 13.9 11.7
5.0 5.5 5.7 6.3 6.9 7.3 7.7 7.9 8.3 8.2 8.7 9.6 10.2 10.7 11.3 13.2 13.6 12.3 11.9 11.9 11.0 10.7 10.1 8.5 8.3 9.7 12.5 15.8 12.9 9.1 9.0 8.5 8.3 8.1 10.8 15.6 25.0 26.8
6.2 6.2 6.2 6.6 6.8 7.5 8.2 8.5 8.7 8.4 8.8 10.1 11.3 11.6 12.1 12.7 12.5 13.0 13.1 12.6 12.6 11.9 11.3 10.6 9.1 9.2 9.9 10.6 11.2 9.7 8.8 8.7 8.7 9.5 11.0 10.4 9.3 11.1